Regional Weather Roundup
Issued by NWS Upton, NY

Current Version | Previous Version | Text Only | Print | Product List | Glossary On
Versions: 1 2 3 4 5 6 7 8 9 10 11 12 13 14 15 16 17 18 19 20 21 22 23 24 25 26 27
000
ASUS41 KOKX 292304
RWROKX

REGIONAL WEATHER ROUNDUP
NATIONAL WEATHER SERVICE NEW YORK NY
700 PM EDT FRI APR 29 2016

NOTE: "FAIR" INDICATES FEW OR NO CLOUDS BELOW 12,000 FEET WITH NO
SIGNIFICANT WEATHER AND/OR OBSTRUCTIONS TO VISIBILITY.

NYZ071-072-176-178-NJZ106-104-300000-
NEW YORK CITY METRO AREA


CITY           SKY/WX    TMP DP  RH WIND       PRES   REMARKS
CENTRAL PARK   CLOUDY    52  36  54 NE5       30.11S
LAGUARDIA APRT CLOUDY    55  28  35 VRB7      30.08S
KENNEDY INTL   CLOUDY    50  33  52 E13       30.10S
NEWARK/LIBERTY LGT RAIN  52  31  44 SE6       30.09R
BRNX BOT. GARD   N/A     50  39  66 N6        30.10R
TETERBORO      LGT RAIN  52  35  52 E5        30.08R
$$

NYZ177-179-078>081-300000-
LONG ISLAND NEW YORK

CITY           SKY/WX    TMP DP  RH WIND       PRES   REMARKS
FARMINGDALE    CLOUDY    49  36  61 SE13      30.09F
ISLIP          CLOUDY    49  34  56 E9        30.09S
SHIRLEY        CLOUDY    49  35  58 VRB5      30.10F
RIVERHEAD        N/A     48  37  66 SE5       30.09F
WESTHAMPTON    CLOUDY    44  37  76 E10       30.10F
EAST HAMPTON   FAIR      46  37  70 E8        30.11S
MONTAUK POINT    N/A     47  39  74 VRB7      30.13S
$$

NYZ052-065-067-300000-
HUDSON VALLEY

CITY           SKY/WX    TMP DP  RH WIND       PRES   REMARKS
WHITE PLAINS   CLOUDY    50  32  50 E7        30.08R
NEWBURGH       CLOUDY    54  36  50 SE9       30.07R
MONTGOMERY     LGT RAIN  52  36  54 SW6       30.06S
POUGHKEEPSIE   CLOUDY    57  32  38 SE6       30.06R
ALBANY         CLOUDY    56  34  43 SW7       30.05F
$$

NJZ001-105-106-008-010-013-015-019>022-104-300000-
NEW JERSEY

CITY           SKY/WX    TMP DP  RH WIND       PRES   REMARKS
NEWARK/LIBERTY LGT RAIN  52  31  44 SE6       30.09R
TETERBORO      LGT RAIN  52  35  52 E5        30.08R
CALDWELL       LGT RAIN  51  36  56 S7        30.09R
MORRISTOWN     CLOUDY    50  37  62 CALM      30.09R
SOMERVILLE     CLOUDY    48  40  73 CALM      30.07S
SUSSEX         CLOUDY    51  32  48 E3        30.08R
ANDOVER          N/A     46  40  79 CALM      30.07R
TRENTON        CLOUDY    49  40  71 E8        30.08R
MILLVILLE      CLOUDY    49  45  86 E10       30.05S
ATLANTIC CITY  CLOUDY    48  44  86 NE10      30.07R
WRIGHTSTOWN    MOCLDY    46  43  90 NE9       30.05F
TOMS RIVER     CLOUDY    45  39  81 NE7       30.09S
BELMAR         LGT RAIN  46  41  82 E12       30.10R
$$

PAZ047>061-062-071-300000-
EASTERN PENNSYLVANIA

CITY           SKY/WX    TMP DP  RH WIND       PRES   REMARKS
PHILADELPHIA   CLOUDY    50  43  77 E10       30.08S
ALLENTOWN      LGT RAIN  49  40  71 SE6       30.06F
SCRANTON       LGT RAIN  47  42  83 SW5       30.05R
$$

CTZ002-004>006-009-010-012-RIZ004-006-007-MAZ004-011-015-300000-
SOUTHERN NEW ENGLAND
 IN CT

CITY           SKY/WX    TMP DP  RH WIND       PRES   REMARKS
BRADLEY INTL   MOCLDY    57  35  43 S7        30.05S
HARTFORD       CLOUDY    56  34  43 S9        30.08R
DANBURY        CLOUDY    50  34  54 SE7       30.09S
WTRBRY/OXFORD  MOCLDY    48  28  46 S9        30.10S
BRIDGEPORT     CLOUDY    50  39  66 E13       30.10F
MERIDEN        CLOUDY    51  31  46 S7        30.09S
NEW HAVEN      CLOUDY    48  35  60 E6        30.10F
CHESTER        FAIR      46  32  57 SE7       30.10S
GROTON         CLOUDY    47  42  83 E15       30.11S
WILLIMANTIC    CLOUDY    56  30  37 S9        30.08S

 IN RI

CITY           SKY/WX    TMP DP  RH WIND       PRES   REMARKS
PROVIDENCE     MOCLDY    49  35  58 S10       30.12R
BLOCK ISLAND   PTCLDY    45  39  79 E10       30.12F
WESTERLY       CLOUDY    47  36  65 SE12      30.12F

 IN MA

CITY           SKY/WX    TMP DP  RH WIND       PRES   REMARKS
BOSTON         MOCLDY    47  33  58 E17       30.13S
WORCESTER      PTCLDY    52  33  48 E6        30.06R
WESTFIELD      PTCLDY    57  34  41 S7        30.05S
PROVINCETOWN   CLEAR     46  30  53 SE9       30.16S
NANTUCKET      CLEAR     45  32  60 E12       30.13F
$$

ANZ330-335-338-340-345-350-353-355-300000-
COASTAL MARINE OBSERVATIONS


STATION/POSITION TIME  SKY/WX   TEMP    WIND        PRES    VSBY  WAVE
                                AIR SEA DIR/SP/G                  HT/PER
                 (UTC)          (F)     (DEG/KT/KT) (MB)    (MI)  (FT/S)
NY HARB ENTRANCE 2150            48 51   80/ 16/ 17 1018.6          6/ 7
20S FIRE ISLAND  2150            47 48   70/ 16/ 19 1018.4          7/ 8
GREAT SOUTH BAY  2230            48 57  110/ 14/ 19   N/A
23 SSW MONTAUK P 2250            45 47   80/ 16/ 17 1018.8          5/ 7
15 E BARNEGAT LI 2222               51                N/A           7/ 8
HUDSON CANYON    2150            48 50              1016.7          7/ 8
KINGS POINT      2200            52 53              1018.2
EXECUTION ROCKS  NOT AVBL
CENTRAL LI SOUND 2200            47      90/ 12/ 14   N/A           2/ 3
EASTERN LI SOUND 2200            47 48  100/ 12/ 16   N/A
ROBBINS REEF     2200            51                 1017.6
$$


>>>>>>>>>>>>>>>>>>>>>>>>>>>> KEY <<<<<<<<<<<<<<<<<<<<<<<<<<<
>                                                          <
>     SKY/WX - SKY CONDITION/PRESENT WEATHER               <
>     TMP    - TEMPERATURE IN FAHRENHEIT                   <
>     DP     - DEWPOINT IN FAHRENHEIT                      <
>     RH     - RELATIVE HUMIDITY IN PERCENT                <
>     WIND   - DIRECTION AND SPEED IN MPH                  <
>     PRES   - MEAN SEA LEVEL PRESSURE IN INCHES OF HG     <
>     WCI    - WIND CHILL INDEX                            <
>     VSB    - VISIBILITY IN MILES                         <
>     HX     - HEAT INDEX                                  <
>     TC     - TEMPERATURE IN CELSIUS                      <
>     VRB    - VARIABLE WIND DIRECTION                     <
>                                                          <
>>>>>>>>>>>>>>>>>>>>>>>>>>>> KEY <<<<<<<<<<<<<<<<<<<<<<<<<<<






USA.gov is the U.S. government's official web portal to all federal, state and local government web resources and services.